Weather History for Concordia, KS

Change the Weather History Date:

Tuesday, February 7, 2012

  Actual Average Record
Temperature  
Mean Temperature 33 °F 30 °F  
Max Temperature 41 °F 41 °F 69 °F (1990)
Min Temperature 24 °F 20 °F -17 °F (1895)
Degree Days  
Heating Degree Days 32 34  
Month to date heating degree days 195 244  
Since 1 July heating degree days 3112 3548  
Cooling Degree Days 0 0  
Month to date cooling degree days 0 0  
Year to date cooling degree days 0 0  
Moisture  
Dew Point 26 °F    
Average Humidity 76    
Maximum Humidity 88    
Minimum Humidity 64    
Precipitation  
Precipitation 0.07 in 0.03 in 0.26 in (1980)
Month to date precipitation 2.01 0.18  
Year to date precipitation 2.33 0.76  
Snow  
Snow 1.10 in 0.20 in 8.20 in (1980)
Month to date snowfall 2.4 1.5  
Year to date snowfall 5.5 7.2  
Since 1 July snowfall 6.4 13.7  
Snow Depth 0.00 in    
Sea Level Pressure  
Sea Level Pressure 30.39 in    
Wind  
Wind Speed 12 mph (North)    
Max Wind Speed 21 mph    
Max Gust Speed 25 mph    
Visibility 4 miles    
Events Snow    
T = Trace of Precipitation, MM = Missing Value Source: NWS Daily Summary

Daily Weather History Graph

Daily Weather History Graph

Search for Another Location

Airport:

Trip Planner

Search our weather history database for the weather conditions in past years. The results will help you decide how hot, cold, wet, or windy it might be!

Date:

Astronomy

Feb. 07, 2012 Rise Set
Actual Time 7:32 AM CST 5:57 PM CST
Civil Twilight 7:04 AM CST 6:25 PM CST
Nautical Twilight 6:32 AM CST 6:57 PM CST
Astronomical Twilight 6:01 AM CST 7:28 PM CST
Moon 6:09 PM CST (2/7) 7:02 AM CST (2/7)
Length of Visible Light 11h 20m
Length of Day
10h 24m
Full, 100% of the Moon is Illuminated
Feb 7
Full
Feb 7
Full
Feb 14
Last Quarter
Feb 21
New
Feb 29
First Quarter

Hourly Weather History & Observations

Time (CST) Temp. Windchill Dew Point Humidity Pressure Visibility Wind Dir Wind Speed Gust Speed Precip Events Conditions
12:55 AM 39.0 °F 34.8 °F 28.0 °F 65% 30.21 in 10.0 mi SW 5.8 mph - N/A   Overcast
1:55 AM 36.0 °F 28.0 °F 28.0 °F 73% 30.24 in 10.0 mi NNW 11.5 mph - N/A   Overcast
2:55 AM 34.0 °F 28.0 °F 28.0 °F 79% 30.26 in 10.0 mi NNW 6.9 mph - N/A   Overcast
3:55 AM 32.0 °F 23.0 °F 27.0 °F 82% 30.28 in 9.0 mi North 11.5 mph - N/A   Overcast
4:37 AM 30.2 °F 21.9 °F 28.4 °F 93% 30.26 in 9.0 mi NNE 9.2 mph - N/A   Overcast
4:55 AM 32.0 °F 24.2 °F 28.0 °F 85% 30.29 in 9.0 mi North 9.2 mph - N/A   Overcast
5:38 AM 32.0 °F 25.6 °F 28.4 °F 87% 30.27 in 7.0 mi North 6.9 mph - N/A   Overcast
5:55 AM 32.0 °F 22.1 °F 28.9 °F 88% 30.31 in 7.0 mi North 13.8 mph - N/A   Overcast
6:55 AM 30.0 °F 19.5 °F 27.0 °F 88% 30.34 in 7.0 mi North 13.8 mph - N/A   Overcast
7:55 AM 30.0 °F 20.0 °F 27.0 °F 88% 30.35 in 7.0 mi North 12.7 mph - N/A   Overcast
8:55 AM 30.9 °F 21.2 °F 27.0 °F 85% 30.39 in 6.0 mi North 12.7 mph 20.7 mph N/A   Overcast
9:11 AM 30.2 °F 20.2 °F 26.6 °F 86% 30.35 in 6.0 mi North 12.7 mph - N/A   Overcast
9:55 AM 30.9 °F 20.7 °F 27.0 °F 85% 30.40 in 5.0 mi North 13.8 mph - N/A   Overcast
10:13 AM 30.2 °F 19.8 °F 26.6 °F 86% 30.37 in 2.5 mi North 13.8 mph - 0.00 in Snow Light Snow
10:26 AM 30.2 °F 21.9 °F 26.6 °F 86% 30.38 in 1.5 mi North 9.2 mph - 0.00 in Snow Light Snow
10:36 AM 30.2 °F 20.2 °F 26.6 °F 86% 30.38 in 1.0 mi North 12.7 mph - 0.00 in Snow Light Snow
10:55 AM 30.0 °F 21.7 °F 28.0 °F 92% 30.42 in 1.2 mi North 9.2 mph - 0.01 in Snow Light Snow
11:04 AM 30.2 °F 20.2 °F 28.4 °F 93% 30.39 in 1.0 mi North 12.7 mph - 0.00 in Snow Light Snow
11:22 AM 30.2 °F 20.2 °F 28.4 °F 93% 30.38 in 1.2 mi North 12.7 mph - 0.00 in Snow Light Snow
11:33 AM 30.2 °F 20.2 °F 28.4 °F 93% 30.39 in 1.0 mi North 12.7 mph - 0.01 in Snow Light Snow
11:47 AM 30.2 °F 19.8 °F 26.6 °F 86% 30.39 in 1.5 mi North 13.8 mph - 0.01 in Snow Light Snow
11:55 AM 30.0 °F 21.1 °F 27.0 °F 88% 30.43 in 1.8 mi North 10.4 mph - 0.01 in Snow Light Snow
11:59 AM 30.2 °F 19.8 °F 26.6 °F 86% 30.39 in 2.0 mi North 13.8 mph - 0.00 in Snow Light Snow
12:08 PM 30.2 °F 20.2 °F 26.6 °F 86% 30.39 in 2.5 mi North 12.7 mph - 0.00 in Snow Light Snow
12:15 PM 30.2 °F 19.8 °F 26.6 °F 86% 30.39 in 1.5 mi North 13.8 mph - 0.00 in Snow Light Snow
12:23 PM 30.2 °F 20.2 °F 26.6 °F 86% 30.39 in 1.2 mi North 12.7 mph - 0.01 in Snow Light Snow
12:48 PM 30.2 °F 20.2 °F 26.6 °F 86% 30.38 in 1.5 mi North 12.7 mph - 0.01 in Snow Light Snow
12:53 PM 30.2 °F 20.8 °F 26.6 °F 86% 30.38 in 2.0 mi North 11.5 mph - 0.01 in Snow Light Snow
12:55 PM 30.0 °F 19.5 °F 27.0 °F 88% 30.42 in 2.0 mi North 13.8 mph - 0.01 in Snow Light Snow
1:14 PM 30.2 °F 20.2 °F 26.6 °F 86% 30.38 in 1.5 mi North 12.7 mph 24.2 mph 0.01 in Snow Light Snow
1:27 PM 30.2 °F 21.3 °F 26.6 °F 86% 30.38 in 2.0 mi North 10.4 mph 23.0 mph 0.01 in Snow Light Snow
1:34 PM 30.2 °F 19.8 °F 26.6 °F 86% 30.38 in 1.5 mi North 13.8 mph - 0.01 in Snow Light Snow
1:42 PM 30.2 °F - 26.6 °F 86% 30.38 in 2.0 mi North - - 0.01 in Snow Light Snow
1:50 PM 30.2 °F 19.3 °F 26.6 °F 86% 30.38 in 1.5 mi North 15.0 mph - 0.01 in Snow Light Snow
1:55 PM 30.0 °F 19.5 °F 27.0 °F 88% 30.42 in 1.0 mi North 13.8 mph - 0.01 in Snow Light Snow
1:58 PM 30.2 °F 19.3 °F 26.6 °F 86% 30.38 in 0.8 mi North 15.0 mph - 0.00 in Snow Light Snow
2:14 PM 30.2 °F 20.8 °F 26.6 °F 86% 30.38 in 1.5 mi North 11.5 mph - 0.01 in Snow Light Snow
2:17 PM 30.2 °F 20.8 °F 26.6 °F 86% 30.38 in 2.0 mi North 11.5 mph - 0.01 in Snow Light Snow
2:27 PM 30.2 °F 21.9 °F 26.6 °F 86% 30.38 in 3.0 mi North 9.2 mph 19.6 mph 0.01 in Snow Light Snow
2:37 PM 30.2 °F 19.3 °F 26.6 °F 86% 30.39 in 2.0 mi North 15.0 mph 23.0 mph 0.01 in Snow Light Snow
2:55 PM 30.0 °F 19.5 °F 25.0 °F 82% 30.43 in 8.0 mi North 13.8 mph - 0.01 in   Overcast
3:12 PM 30.2 °F 18.9 °F 26.6 °F 86% 30.39 in 1.8 mi North 16.1 mph 24.2 mph 0.00 in Snow Light Snow
3:28 PM 28.4 °F 15.8 °F 24.8 °F 86% 30.40 in 2.5 mi North 18.4 mph 24.2 mph 0.01 in Snow Light Snow
3:38 PM 28.4 °F 16.6 °F 24.8 °F 86% 30.41 in 4.0 mi North 16.1 mph - 0.01 in Snow Light Snow
3:55 PM 28.9 °F 16.9 °F 24.1 °F 82% 30.46 in 10.0 mi North 17.3 mph 24.2 mph 0.01 in   Overcast
4:55 PM 28.0 °F 17.0 °F 24.1 °F 85% 30.47 in 4.0 mi North 13.8 mph - 0.00 in Snow Light Snow
5:29 PM 26.6 °F 15.2 °F 24.8 °F 93% 30.43 in 2.5 mi North 13.8 mph - 0.00 in Snow Light Snow
5:55 PM 26.1 °F 14.0 °F 23.0 °F 88% 30.49 in 2.0 mi North 15.0 mph - 0.00 in Snow Light Snow
6:23 PM 24.8 °F 12.9 °F 21.2 °F 86% 30.44 in 4.0 mi North 13.8 mph 21.9 mph 0.01 in Snow Light Snow
6:55 PM 25.0 °F 12.6 °F 21.0 °F 85% 30.51 in 3.0 mi North 15.0 mph 23.0 mph 0.01 in Snow Light Snow
7:55 PM 24.1 °F 12.5 °F 19.9 °F 84% 30.52 in 10.0 mi North 12.7 mph - 0.00 in   Overcast
8:55 PM 24.1 °F 12.5 °F 19.9 °F 84% 30.54 in 10.0 mi North 12.7 mph 18.4 mph N/A   Overcast
9:55 PM 24.1 °F 13.7 °F 19.9 °F 84% 30.56 in 10.0 mi North 10.4 mph - N/A   Overcast
10:55 PM 24.1 °F 14.4 °F 19.9 °F 84% 30.55 in 10.0 mi North 9.2 mph - N/A   Overcast
11:55 PM 24.1 °F 15.2 °F 19.9 °F 84% 30.56 in 10.0 mi North 8.1 mph - N/A   Overcast